<?xml version='1.0' encoding='UTF-8'?>
<gpx xmlns="http://www.topografix.com/GPX/1/1" creator="www.balnam.be" version="1.1" xmlns:xsi="http://www.w3.org/2001/XMLSchema-instance" xsi:schemaLocation="http://www.topografix.com/GPX/1/1 http://www.topografix.com/GPX/1/1/gpx.xsd">
<trk>
<name>lwrbr10</name>
<cmt>q</cmt>
<desc>Bleret Chemin n°10 </desc>
<link href="https://chemins.be/bleret/chemin/10"/><trkseg>
<trkpt lat="50.690462" lon="5.288630"><time>2026-05-02T19:18:14Z</time></trkpt>
<trkpt lat="50.691022" lon="5.285994"><time>2026-05-02T19:28:14Z</time></trkpt>
</trkseg>
</trk>
<trk>
<name>lwrbr11</name>
<cmt>q</cmt>
<desc>Bleret Sentier n°11 </desc>
<link href="https://chemins.be/bleret/sentier/11"/><trkseg>
<trkpt lat="50.689920" lon="5.279372"><time>2026-05-02T19:18:14Z</time></trkpt>
<trkpt lat="50.690342" lon="5.279108"><time>2026-05-02T19:28:14Z</time></trkpt>
<trkpt lat="50.691157" lon="5.277606"><time>2026-05-02T19:38:14Z</time></trkpt>
</trkseg>
</trk>
<trk>
<name>lwrbr12</name>
<cmt>q</cmt>
<desc>Bleret Sentier n°12 </desc>
<link href="https://chemins.be/bleret/sentier/12"/><trkseg>
<trkpt lat="50.686255" lon="5.286210"><time>2026-05-02T19:18:14Z</time></trkpt>
<trkpt lat="50.686259" lon="5.286854"><time>2026-05-02T19:28:14Z</time></trkpt>
<trkpt lat="50.687723" lon="5.287870"><time>2026-05-02T19:38:14Z</time></trkpt>
<trkpt lat="50.688833" lon="5.289408"><time>2026-05-02T19:48:14Z</time></trkpt>
<trkpt lat="50.689083" lon="5.289741"><time>2026-05-02T19:58:14Z</time></trkpt>
</trkseg>
</trk>
<trk>
<name>lwrbr13</name>
<cmt>q</cmt>
<desc>Bleret Sentier n°13 </desc>
<link href="https://chemins.be/bleret/sentier/13"/><trkseg>
<trkpt lat="50.679014" lon="5.283430"><time>2026-05-02T19:18:14Z</time></trkpt>
<trkpt lat="50.677111" lon="5.281308"><time>2026-05-02T19:28:14Z</time></trkpt>
<trkpt lat="50.676184" lon="5.278725"><time>2026-05-02T19:38:14Z</time></trkpt>
</trkseg>
</trk>
<trk>
<name>lwrbr4</name>
<cmt>v</cmt>
<desc>Bleret Chemin n°4 </desc>
<link href="https://chemins.be/bleret/chemin/4"/><trkseg>
<trkpt lat="50.683785" lon="5.286983"><time>2026-05-02T19:18:14Z</time></trkpt>
<trkpt lat="50.683523" lon="5.287181"><time>2026-05-02T19:28:14Z</time></trkpt>
<trkpt lat="50.683389" lon="5.287148"><time>2026-05-02T19:38:14Z</time></trkpt>
</trkseg></trk>
<trk>
<name>lwrbr4</name>
<cmt>s</cmt>
<desc>Bleret Chemin n°4 </desc>
<link href="https://chemins.be/bleret/chemin/4"/><trkseg>
<trkpt lat="50.683389" lon="5.287148"><time>2026-05-02T19:38:14Z</time></trkpt>
<trkpt lat="50.681605" lon="5.288277"><time>2026-05-02T19:48:14Z</time></trkpt>
<trkpt lat="50.680164" lon="5.288728"><time>2026-05-02T19:58:14Z</time></trkpt>
<trkpt lat="50.676801" lon="5.288334"><time>2026-05-02T20:08:14Z</time></trkpt>
</trkseg>
</trk>
<trk>
<name>lwrbr5</name>
<cmt>s</cmt>
<desc>Bleret Chemin n°5 </desc>
<link href="https://chemins.be/bleret/chemin/5"/><trkseg>
<trkpt lat="50.675431" lon="5.279623"><time>2026-05-02T19:18:14Z</time></trkpt>
<trkpt lat="50.676156" lon="5.278343"><time>2026-05-02T19:28:14Z</time></trkpt>
<trkpt lat="50.678572" lon="5.276478"><time>2026-05-02T19:38:14Z</time></trkpt>
<trkpt lat="50.679720" lon="5.274809"><time>2026-05-02T19:48:14Z</time></trkpt>
</trkseg>
</trk>
<trk>
<name>lwrbr6</name>
<cmt>s</cmt>
<desc>Bleret Chemin n°6 </desc>
<link href="https://chemins.be/bleret/chemin/6"/><trkseg>
<trkpt lat="50.684294" lon="5.288935"><time>2026-05-02T19:18:14Z</time></trkpt>
<trkpt lat="50.682934" lon="5.290781"><time>2026-05-02T19:28:14Z</time></trkpt>
<trkpt lat="50.681026" lon="5.291331"><time>2026-05-02T19:38:14Z</time></trkpt>
</trkseg>
</trk>
<trk>
<name>lwrbr9</name>
<cmt>q</cmt>
<desc>Bleret Sentier n°9 </desc>
<link href="https://chemins.be/bleret/sentier/9"/><trkseg>
<trkpt lat="50.689110" lon="5.288892"><time>2026-05-02T19:18:14Z</time></trkpt>
<trkpt lat="50.689105" lon="5.289815"><time>2026-05-02T19:28:14Z</time></trkpt>
<trkpt lat="50.690496" lon="5.292469"><time>2026-05-02T19:38:14Z</time></trkpt>
</trkseg>
</trk>
<trk>
<name>lwrbri1</name>
<cmt>v</cmt>
<desc>Bleret Chemin n°i1 </desc>
<link href="https://chemins.be/bleret/chemin/i1"/><trkseg>
<trkpt lat="50.688608" lon="5.289958"><time>2026-05-02T19:18:14Z</time></trkpt>
<trkpt lat="50.687562" lon="5.294006"><time>2026-05-02T19:28:14Z</time></trkpt>
</trkseg>
</trk>
</gpx>